Dewpoint
32 33 33 35 34 34 34 32 28 26 29 30 30 26 30 34 36 37 38 40 40 39 38 36 34 29 24 18 15 13 12 11 11 12 12 12 13 12 12 12 12 11 12 13
30 36 35 36 37 37 37 35 35 35 34 30 29 29 31 34 36 37 38 39 40 39 38 35 33 27 21 16 14 13 12 12 13 12 13 13 12 11 10 10 10 12 13 13
31 38 36 34 35 37 35 35 34 33 34 27 28 29 32 36 36 37 38 39 39 38 37 34 31 24 19 15 14 13 13 13 12 13 12 11 10 9 8 9 12 14 14 13
32 36 25 27 36 38 37 38 39 32 27 28 30 34 35 35 36 37 38 40 38 36 34 31 26 21 17 13 13 13 12 11 12 11 10 10 9 9 8 11 13 14 13 13
30 28 28 25 27 34 34 34 32 28 31 32 33 33 34 37 37 37 38 38 36 33 30 26 22 17 14 13 12 12 10 10 11 10 9 9 8 8 10 12 13 13 13 12
33 27 23 24 28 28 29 28 29 31 31 31 31 27 33 36 35 33 32 31 30 27 23 21 17 15 14 12 11 10 9 10 10 10 9 8 7 9 12 13 13 13 11 11
31 31 29 31 29 29 26 26 29 32 32 32 29 32 35 34 32 30 28 26 24 23 21 17 15 14 13 11 10 9 10 9 9 8 7 8 10 12 12 12 12 11 11 11
31 30 26 33 28 24 28 32 33 33 33 33 35 35 33 32 30 29 28 25 22 19 16 15 14 13 10 9 9 9 9 8 8 7 7 10 11 12 12 12 12 12 13 13
33 31 34 33 32 35 33 33 33 33 34 34 34 33 32 31 30 28 25 21 19 16 16 14 12 10 10 9 9 8 7 6 6 7 11 11 12 11 11 13 13 14 15 15
34 33 33 33 35 35 34 34 33 34 34 34 32 31 30 29 28 26 21 18 16 16 14 12 10 10 9 8 8 6 5 5 7 9 14 12 12 12 13 14 14 16 16 15
32 32 32 33 34 34 33 33 33 33 33 32 30 30 29 28 27 25 22 18 17 15 12 9 9 9 8 8 7 6 5 6 7 11 12 12 12 13 15 15 16 16 16 16
33 32 32 31 34 33 33 33 33 32 32 32 31 30 30 29 28 26 23 21 19 16 11 8 8 8 8 7 6 5 5 7 10 13 12 12 12 13 16 15 16 16 16 16
33 33 32 33 33 33 33 33 33 32 32 32 32 32 31 30 29 28 25 23 21 16 13 9 9 9 8 8 7 6 6 9 12 12 12 12 13 13 13 14 15 15 14 15
33 33 32 32 32 32 32 32 32 31 31 31 31 31 31 31 30 27 26 24 20 14 11 9 8 8 9 8 7 7 8 15 13 13 13 13 14 13 14 14 13 12 13 14
33 33 33 32 31 30 30 29 29 28 28 28 28 28 27 27 26 25 23 18 14 11 9 8 8 7 8 8 8 10 11 14 15 14 13 15 14 14 14 14 13 12 11 11
32 31 31 30 28 27 27 26 25 26 26 26 25 25 25 24 21 18 15 12 11 10 9 8 7 8 9 9 11 12 12 15 16 15 14 15 15 14 14 12 11 10 10 11
31 29 29 28 27 25 25 25 25 26 26 25 25 25 22 19 16 14 14 14 12 10 9 9 9 11 11 12 13 12 12 13 16 15 16 16 14 13 12 10 10 10 11 12
32 31 30 28 25 24 24 26 27 28 27 27 26 23 20 18 17 15 12 12 10 10 10 10 10 12 14 14 13 13 14 15 15 16 16 13 12 10 9 10 10 11 12 13
32 30 27 24 24 25 25 26 27 28 29 27 26 24 23 21 18 14 11 10 9 8 10 13 16 14 12 13 15 15 16 15 15 14 12 10 9 9 10 11 11 12 13 14
26 24 25 25 26 25 26 28 29 29 28 27 25 23 21 19 15 12 10 9 9 9 11 14 13 12 11 14 18 15 13 13 12 10 9 10 9 10 10 11 12 13 14 13
25 25 25 25 26 27 27 27 27 27 27 25 23 19 16 13 12 11 10 10 13 15 15 15 13 13 15 17 14 12 12 10 9 9 9 10 10 10 11 13 14 13 13 14
25 25 25 26 25 25 25 25 25 24 23 21 17 14 12 11 11 11 11 11 16 16 13 12 12 15 16 16 11 10 10 9 9 9 10 10 11 12 13 13 13 14 14 14
24 24 24 24 24 23 21 20 19 18 16 14 12 11 11 11 12 11 11 16 15 14 10 11 13 14 16 10 10 10 10 10 10 10 10 11 12 12 12 13 14 14 14 14
23 23 21 20 19 18 17 15 14 14 13 13 12 12 12 12 12 14 15 15 14 10 9 11 13 13 13 10 10 10 10 10 10 10 12 11 11 12 13 13 13 13 13 13
21 20 19 18 17 15 14 13 12 12 11 11 11 11 11 11 9 8 8 8 11 5 4 10 11 12 9 9 10 11 10 9 10 11 10 11 12 12 11 11 11 12 13 12
21 19 18 17 15 14 12 12 11 11 9 8 8 8 8 8 8 6 6 5 6 7 6 7 9 10 10 9 10 8 8 8 8 10 11 11 11 10 11 11 11 11 11 11
21 19 16 15 14 13 13 12 12 12 9 6 5 5 5 5 7 6 5 4 6 7 7 7 7 8 8 8 6 6 7 8 9 11 11 11 11 11 11 11 11 11 11 10
Wind_Speed
27 24 19 16 27 29 30 15 21 12 26 42 24 22 25 21 20 23 23 23 24 24 23 21 21 19 18 18 17 17 16 14 11 9 7 6 4 3 4 6 8 10 12 15
24 15 21 11 32 21 18 9 11 15 19 29 4 10 15 23 23 24 25 24 22 21 20 21 21 20 19 18 17 17 16 13 10 8 6 4 3 4 6 8 10 12 14 15
6 10 17 10 28 19 11 12 22 24 32 12 8 9 13 20 25 27 26 24 24 24 22 21 21 22 21 19 17 16 14 11 9 7 5 4 3 5 8 9 11 14 15 15
4 7 4 1 27 30 34 30 32 21 11 15 15 11 10 5 14 18 20 20 20 21 20 19 17 18 19 18 17 15 13 10 8 6 4 3 4 6 7 9 12 14 15 15
4 3 2 4 8 14 18 17 11 11 14 17 17 11 11 12 8 12 16 17 18 18 20 21 21 20 20 17 16 14 11 9 7 5 4 3 4 7 8 10 13 13 13 15
5 3 3 1 3 2 3 6 6 14 23 25 11 14 5 5 14 19 19 19 23 22 22 23 18 19 20 17 14 12 9 7 5 4 3 4 5 8 7 9 12 13 15 14
4 3 6 7 2 1 6 5 4 18 25 20 13 3 17 14 18 17 20 23 21 21 21 20 18 18 18 15 12 10 8 7 5 4 4 5 6 7 10 12 14 16 15 15
4 1 5 2 1 2 3 2 4 12 10 15 21 24 20 19 20 21 23 20 19 22 20 16 16 19 16 14 10 9 8 6 5 5 6 6 9 11 12 12 14 14 14 14
11 8 1 0 1 1 2 6 6 16 18 27 26 23 19 19 19 18 19 18 16 20 19 14 14 16 16 11 10 8 7 6 5 5 5 8 9 11 13 14 14 14 12 14
4 3 1 3 3 3 6 8 12 20 22 23 29 21 20 18 18 17 17 18 17 18 17 15 11 11 14 11 9 8 7 5 4 5 6 8 7 9 11 12 14 12 14 15
5 3 1 3 3 8 14 19 20 16 19 22 26 20 20 19 17 17 17 16 16 17 17 14 13 13 10 9 9 8 6 4 4 4 6 8 9 8 10 11 13 15 13 13
11 10 7 8 13 17 22 21 21 26 20 14 17 22 19 17 15 16 17 16 15 15 16 14 13 12 9 8 7 6 4 2 3 4 7 8 10 14 10 13 16 17 18 17
5 6 3 13 14 8 21 20 19 21 22 23 15 20 16 17 12 15 15 16 17 17 15 14 12 11 8 7 7 5 3 2 5 7 8 10 11 12 14 13 14 16 18 19
16 19 12 10 11 17 24 21 22 21 18 18 20 16 17 18 15 15 15 14 15 16 14 14 12 10 7 7 6 4 3 5 5 6 8 10 10 11 11 12 14 14 14 17
3 3 14 22 23 20 22 25 25 21 19 18 15 19 18 19 17 15 14 15 16 15 13 12 11 9 6 6 5 3 3 5 6 7 8 9 10 12 11 11 13 14 14 14
14 18 21 26 24 22 24 22 27 20 18 17 18 17 16 17 17 15 15 16 17 14 11 11 10 8 6 5 4 3 4 8 8 7 9 11 11 11 10 11 12 13 14 15
24 16 19 21 24 23 21 19 22 22 19 19 19 18 19 18 16 15 12 9 11 11 10 10 10 6 5 4 3 3 5 6 9 9 10 9 10 10 10 11 12 13 14 14
7 14 16 27 30 27 22 18 19 20 20 19 19 19 18 17 17 15 12 13 14 11 8 8 7 5 4 3 2 3 5 7 9 9 9 10 10 10 11 11 12 13 14 14
17 23 23 23 23 24 23 22 19 18 20 20 20 18 15 15 15 14 13 13 12 11 6 5 6 5 3 3 3 4 6 8 9 8 9 11 11 10 11 11 12 13 13 14
20 21 25 24 22 26 24 18 20 20 17 18 18 17 17 15 15 14 12 10 5 6 8 5 5 4 2 4 5 5 7 8 8 9 9 9 10 10 11 13 13 13 14 15
23 25 27 26 23 19 19 20 22 21 17 17 19 17 17 14 14 16 15 13 5 6 6 5 3 2 3 3 5 7 7 7 8 9 10 10 11 11 11 11 12 14 15 14
24 25 25 26 25 23 19 18 19 19 18 17 17 18 18 15 14 11 7 11 6 6 5 4 2 3 3 5 6 6 7 8 9 9 10 10 10 11 11 12 15 14 14 15
22 24 24 25 26 23 19 18 17 18 19 18 18 17 16 14 12 15 12 5 6 6 5 3 3 4 5 5 6 7 8 9 11 11 10 11 10 11 13 14 14 15 14 15
25 23 23 22 23 24 24 15 17 16 17 16 16 15 17 16 12 9 11 8 7 6 4 4 5 5 6 6 7 8 9 10 11 11 10 13 12 13 14 13 14 14 15 16
23 23 24 24 23 19 21 19 20 18 18 17 14 11 9 4 6 8 8 7 6 5 4 5 6 7 7 7 8 9 10 11 11 11 13 14 14 14 13 13 13 14 14 13
24 20 16 15 19 18 18 16 18 14 16 16 13 12 12 12 12 10 7 6 5 4 4 5 6 7 8 9 9 11 11 11 12 12 14 14 14 14 13 13 13 13 13 14
20 21 19 17 13 14 14 16 18 15 12 13 15 10 11 10 9 7 6 4 4 4 5 6 7 8 9 10 11 10 10 10 13 14 12 12 12 12 12 12 13 13 14 14
Wind_Direction
256 244 219 235 196 194 202 193 201 238 221 255 237 187 186 169 155 155 161 166 168 164 162 158 153 151 148 145 145 143 139 140 143 139 133 121 99 52 18 4 356 353 350 342
285 260 184 202 183 174 175 173 231 256 277 254 161 133 159 168 161 166 170 171 167 161 157 157 154 152 149 148 145 144 144 143 140 135 126 114 75 29 13 7 359 354 349 343
346 111 137 152 170 184 217 229 202 219 239 168 148 149 161 168 170 174 174 168 164 162 158 152 153 152 152 147 144 142 138 138 138 133 124 94 59 28 9 357 352 346 343 341
28 151 78 186 177 184 197 208 215 217 143 157 146 105 68 46 174 163 156 150 145 142 140 140 137 137 136 139 140 139 139 138 135 129 110 71 39 15 356 350 345 338 334 331
17 344 290 101 112 173 196 199 215 149 129 126 128 97 47 30 109 136 135 129 131 132 134 130 134 134 135 138 137 135 136 134 126 116 100 52 13 359 350 340 336 333 325 327
346 14 63 327 354 73 149 233 164 159 155 156 160 160 166 65 99 102 102 111 120 118 121 127 132 133 135 137 135 134 133 126 117 107 80 28 4 351 339 331 323 325 328 330
267 331 295 268 307 80 152 236 168 174 170 164 164 170 138 115 92 94 104 111 111 115 126 134 136 132 132 134 132 130 125 121 107 78 45 24 4 348 336 336 334 336 331 327
192 241 267 289 350 193 182 93 160 146 135 110 113 110 114 113 112 112 114 113 114 118 125 131 133 130 132 129 134 129 123 113 89 53 29 20 1 347 345 343 340 333 330 329
195 213 222 138 345 47 145 131 128 129 129 126 123 123 125 126 124 121 121 119 117 123 125 126 128 131 133 140 136 129 116 92 62 40 38 16 2 348 345 344 342 337 332 329
173 230 227 157 96 72 117 114 119 126 129 131 130 131 129 128 127 123 123 124 125 124 125 126 127 130 133 139 134 122 108 86 55 32 12 358 356 353 342 342 339 331 330 326
240 259 65 218 184 139 112 116 113 104 121 128 128 130 134 134 134 133 133 133 137 136 136 136 134 130 131 130 125 117 107 77 36 8 346 348 354 346 343 338 332 332 326 322
221 202 195 203 166 143 135 135 132 128 119 114 131 132 133 136 138 140 141 142 141 140 138 141 137 132 125 121 123 118 98 50 351 349 352 347 343 341 343 339 335 334 334 334
201 148 116 128 128 129 131 132 126 125 130 131 121 127 129 131 133 135 139 147 151 153 148 146 138 133 133 121 111 108 106 14 359 356 345 342 345 343 332 327 329 334 337 335
129 110 98 133 152 126 120 114 107 103 108 118 121 114 122 125 128 135 143 150 147 144 144 145 141 138 131 122 119 108 48 14 3 342 345 345 340 329 321 320 326 327 327 329
87 76 139 122 120 120 121 121 115 118 120 116 118 128 131 133 134 135 133 133 132 135 139 142 140 136 135 132 113 77 33 1 352 352 344 337 334 327 316 314 320 319 321 327
102 108 123 130 130 130 128 126 128 130 130 131 131 131 131 127 127 128 130 136 141 150 146 141 139 143 131 116 104 69 22 1 357 347 340 338 331 320 322 327 323 321 321 325
123 123 127 134 142 142 138 137 138 141 138 138 139 135 130 128 125 128 132 135 132 133 139 139 137 132 125 121 91 43 9 355 348 343 337 328 320 324 327 323 319 316 315 323
133 144 153 150 147 141 135 132 136 140 143 140 137 137 137 141 143 139 132 125 115 107 112 126 130 128 120 107 64 10 356 341 338 335 327 330 329 335 324 318 315 314 319 324
136 136 132 134 136 133 136 138 138 134 136 139 139 143 144 141 141 139 135 127 131 132 134 127 127 118 104 26 37 12 344 340 335 331 332 329 333 325 320 317 316 320 323 327
121 120 123 123 127 135 133 130 131 133 136 134 130 129 131 135 136 132 128 120 128 139 143 137 122 114 72 356 360 357 347 342 339 337 331 334 326 321 318 319 324 324 326 323
131 130 128 127 122 118 124 132 134 136 137 135 136 135 132 130 129 130 124 118 112 128 127 122 133 112 341 10 17 358 352 348 341 334 330 326 320 316 313 315 322 322 320 317
135 131 127 126 126 122 121 123 125 129 130 127 122 123 123 124 125 107 104 135 140 121 107 90 84 322 335 37 9 4 356 348 340 334 328 320 314 311 313 319 319 313 313 310
129 127 126 128 129 126 118 119 122 127 129 131 132 132 130 132 131 130 132 129 106 100 86 51 4 357 38 22 8 359 350 345 339 331 318 309 309 314 313 316 313 312 309 310
124 121 118 118 119 120 123 119 114 114 117 116 121 128 131 124 91 84 108 116 103 92 69 33 15 5 21 7 356 349 346 338 330 318 308 318 312 311 314 311 309 310 306 306
121 121 125 128 125 124 125 124 115 113 111 109 108 106 111 91 126 127 106 95 97 82 56 15 14 12 6 358 348 343 335 327 317 319 319 314 313 314 309 306 303 303 308 314
129 128 124 121 130 134 134 133 129 128 123 114 103 102 97 95 102 107 105 98 83 64 39 13 3 4 357 343 338 335 329 325 325 321 315 312 313 309 308 304 303 304 302 302
108 114 114 111 114 127 132 136 133 132 129 126 119 113 109 105 104 102 98 81 61 38 17 6 1 351 341 337 334 326 320 317 323 316 315 309 305 303 302 302 303 302 301 299